Hourly Data Report for June 29, 2012

All times are specified in Local Standard Time (LST). Add 1 hour to adjust for Daylight Saving Time where and when it is observed.

ABBOTSFORD A
BRITISH COLUMBIA

49°01'31.000" N
122°21'36.000" W
59.10 m
1100031
71108
YXX

Download Data

Hourly Data (June 2012)
Hourly Data Report for June 29, 2012
Temp Definition
°C
Dew Point Temp Definition
°C
Rel Hum Definition
%
Wind Dir Definition
10's deg

Wind Spd Definition
km/h
Visibility Definition
km
Stn Press Definition
kPa
Hmdx Definition


Wind Chill Definition


Weather Definition


TIME
00:00 Legend Double Dagger 14.9 14.4 97 3 9 10.0 100.93     Rain
01:00 Legend Double Dagger 14.7 13.9 95 4 10 10.0 100.92     Rain
02:00 Legend Double Dagger 14.5 13.7 95   0 10.0 100.92     Rain
03:00 Legend Double Dagger 14.4 13.8 96 3 5 10.0 100.92     Rain
04:00 Legend Double Dagger 14.3 13.8 97 4 8 10.0 100.93     Rain
05:00 Legend Double Dagger 14.4 13.9 97 10 4 10.0 100.96     LegendNANA
06:00 Legend Double Dagger 14.6 14.1 97 3 8 10.0 100.98     LegendNANA
07:00 Legend Double Dagger 15.2 14.4 95 2 7 10.0 101.01     Cloudy
08:00 Legend Double Dagger 17.6 15.1 85 8 10 10.0 101.02     LegendNANA
09:00 Legend Double Dagger 18.0 14.0 77 11 5 10.0 101.03     LegendNANA
10:00 Legend Double Dagger 18.5 13.8 74   0 10.0 101.03     Mostly Cloudy
11:00 Legend Double Dagger 19.8 14.0 69   0 10.0 101.04     LegendNANA
12:00 Legend Double Dagger 20.5 14.7 69 24 10 10.0 101.05     LegendNANA
13:00 Legend Double Dagger 20.6 14.1 66 23 15 10.0 101.06     Mostly Cloudy
14:00 Legend Double Dagger 20.5 15.1 71 30 13 10.0 101.01 25   LegendNANA
15:00 Legend Double Dagger 20.8 15.0 69 35 8 10.0 101.01 25   LegendNANA
16:00 Legend Double Dagger 20.9 14.9 68 31 10 10.0 100.99 25   Mostly Cloudy
17:00 Legend Double Dagger 21.4 14.7 65 25 9 10.0 100.95 25   LegendNANA
18:00 Legend Double Dagger 21.2 15.4 69 25 7 10.0 100.91 25   LegendNANA
19:00 Legend Double Dagger 20.4 14.8 70 23 12 10.0 100.92     Cloudy
20:00 Legend Double Dagger 19.4 15.1 76 23 8 10.0 100.89     LegendNANA
21:00 Legend Double Dagger 19.4 14.9 75 27 4 10.0 100.92     LegendNANA
22:00 Legend Double Dagger 18.7 15.8 83 19 6 10.0 100.91     Cloudy
23:00 Legend Double Dagger 18.2 16.0 87 21 5 10.0 100.90     Rain Showers

Notes on Data Quality.

Legend

  • E = Estimated
  • M = Missing
  • NA = Not Available
  • ‡ = Partner data that is not subject to review by the National Climate Archives
Date modified: